Regional Weather Roundup
Issued by NWS

Home | Current Version | Previous Version | Graphics & Text | Print | Product List | Glossary On
Versions: 1 2 3 4 5 6 7 8 9 10 11 12 13 14 15 16 17 18 19 20 21 22 23 24 25 26 27 28 29 30 31 32 33 34 35 36 37 38 39 40 41 42 43 44 45 46 47 48 49 50
000
ASUS45 KCYS 201410
RWRWY

WYOMING REGIONAL WEATHER ROUNDUP
NATIONAL WEATHER SERVICE CHEYENNE WY
800 AM MDT SAT SEP 20 2014

NOTE:  "FAIR" INDICATES FEW OR NO CLOUDS BELOW 12,000 FEET
WITH NO SIGNIFICANT WEATHER AND/OR OBSTRUCTIONS TO VISIBILITY.

WYZ001-201500-
YELLOWSTONE NATIONAL PARK

CITY           SKY/WX    TMP DP  RH WIND       PRES   REMARKS
LK YELLOWSTONE   N/A     34  32  92 CALM      30.42R
W YELLOWSTONE  NOT AVBL

$$
WYZ002>013-054>058-071-098>099-201500-
NORTHERN WYOMING

CITY           SKY/WX    TMP DP  RH WIND       PRES   REMARKS
JACKSON        NOT AVBL
CODY             N/A    N/A N/A N/A MISG        N/A
GREYBULL       MOSUNNY   51  47  86 CALM      30.20R
WORLAND        SUNNY     53  46  77 S3        30.20R
SHERIDAN       SUNNY     57  44  62 W7        30.20R
BUFFALO        SUNNY     57  41  55 NW9       30.24R
GILLETTE       SUNNY     57  46  66 W10       30.19R
HULETT         FAIR      57  45  62 MISG      30.17
NEWCASTLE      FAIR      54  43  66 N3        30.17

$$
WYZ014>020-022>026-101>103-201500-
CENTRAL WYOMING

CITY           SKY/WX    TMP DP  RH WIND       PRES   REMARKS
BIG PINEY      PTCLDY    41  33  73 CALM      30.36R
PINEDALE       MOSUNNY   37  36  93 E3        30.36R
DUBOIS         FAIR      43  34  70 NW8       30.36R
LANDER         MOSUNNY   54  37  52 VRB3      30.26R
RIVERTON       SUNNY     55  42  61 NW3       30.27R
CASPER         SUNNY     51  42  71 W8        30.24R
DOUGLAS        SUNNY     50  44  80 NW5       30.23R

$$
WYZ021-027>030-104>119-201500-
SOUTHERN WYOMING

CITY           SKY/WX    TMP DP  RH WIND       PRES   REMARKS
EVANSTON       CLEAR     46  37  71 SE6       30.35R
KEMMERER       MOSUNNY   45  34  65 CALM      30.37R
FORT BRIDGER   FAIR      52  39  62 W8        30.38R
ROCK SPRINGS   PTSUNNY   50  35  56 CALM      30.34
DIXON          FAIR      42  38  84 CALM      30.36R
RAWLINS        PTSUNNY   50  36  58 NW3       30.32R
SARATOGA       FAIR      43  36  75 CALM      30.35R
LARAMIE        SUNNY     46  37  71 CALM      30.34R
CHEYENNE       SUNNY     54  43  66 W8        30.27R
TORRINGTON     SUNNY     54  47  77 NW5       30.17R
PINE BLUFFS    FAIR      54  46  76 CALM      30.23R

$$


USA.gov is the U.S. government's official web portal to all federal, state and local government web resources and services.